TimeEST,TemperatureF,Dew PointF,Humidity,Sea Level PressureIn,VisibilityMPH,Wind Direction,Wind SpeedMPH,Gust SpeedMPH,PrecipitationIn,Events,Conditions,WindDirDegrees,DateUTC
12:51 AM,30.2,21.2,69,30.51,10.0,NNW,5.8,-,N/A,,Partly Cloudy,340,2013-01-11 05:51:00
1:51 AM,32.0,21.2,64,30.52,10.0,Calm,Calm,-,N/A,,Partly Cloudy,0,2013-01-11 06:51:00
2:51 AM,30.0,21.0,69,30.51,10.0,NW,4.6,-,N/A,,Partly Cloudy,310,2013-01-11 07:51:00
3:51 AM,26.1,19.9,78,30.48,10.0,Calm,Calm,-,N/A,,Clear,0,2013-01-11 08:51:00
4:51 AM,26.1,19.9,78,30.48,10.0,Calm,Calm,-,N/A,,Partly Cloudy,0,2013-01-11 09:51:00
5:51 AM,26.1,21.0,81,30.48,10.0,Calm,Calm,-,N/A,,Scattered Clouds,0,2013-01-11 10:51:00
6:51 AM,28.0,21.9,78,30.50,10.0,Calm,Calm,-,N/A,,Mostly Cloudy,0,2013-01-11 11:51:00
7:51 AM,28.9,23.0,78,30.50,10.0,Calm,Calm,-,N/A,,Mostly Cloudy,0,2013-01-11 12:51:00
8:51 AM,32.0,25.0,75,30.51,10.0,Calm,Calm,-,N/A,,Mostly Cloudy,0,2013-01-11 13:51:00
9:51 AM,35.1,25.0,67,30.50,10.0,Calm,Calm,-,N/A,,Mostly Cloudy,0,2013-01-11 14:51:00
10:51 AM,36.0,25.0,64,30.47,10.0,Calm,Calm,-,N/A,,Mostly Cloudy,0,2013-01-11 15:51:00
11:51 AM,37.4,26.6,65,30.43,10.0,Calm,Calm,-,N/A,,Overcast,0,2013-01-11 16:51:00
12:51 PM,37.9,27.0,65,30.40,10.0,Calm,Calm,-,N/A,,Overcast,0,2013-01-11 17:51:00
1:51 PM,39.0,28.0,65,30.39,10.0,Calm,Calm,-,N/A,,Overcast,0,2013-01-11 18:51:00
2:51 PM,39.0,28.0,65,30.36,10.0,ESE,5.8,-,N/A,,Overcast,110,2013-01-11 19:51:00
3:51 PM,39.0,28.9,67,30.34,10.0,Calm,Calm,-,N/A,,Overcast,0,2013-01-11 20:51:00
4:51 PM,37.0,30.0,76,30.33,10.0,Calm,Calm,-,0.00,Rain,Light Rain,0,2013-01-11 21:51:00
5:51 PM,36.0,32.0,86,30.31,10.0,Calm,Calm,-,0.00,,Overcast,0,2013-01-11 22:51:00
6:51 PM,37.0,33.1,86,30.29,10.0,Calm,Calm,-,0.01,,Overcast,0,2013-01-11 23:51:00
7:51 PM,37.0,34.0,89,30.28,10.0,Calm,Calm,-,0.01,Rain,Light Rain,0,2013-01-12 00:51:00
8:51 PM,37.9,36.0,93,30.25,7.0,SE,5.8,-,0.04,Rain,Light Rain,130,2013-01-12 01:51:00
9:05 PM,37.4,37.4,100,30.24,8.0,SE,4.6,-,0.00,Rain,Light Rain,130,2013-01-12 02:05:00
9:37 PM,39.2,37.4,93,30.24,7.0,East,3.5,-,0.02,Rain,Light Rain,90,2013-01-12 02:37:00
9:51 PM,39.0,37.9,96,30.24,6.0,Calm,Calm,-,0.04,Rain,Rain,0,2013-01-12 02:51:00
10:51 PM,39.9,37.9,93,30.21,7.0,SE,8.1,-,0.08,Rain,Light Rain,130,2013-01-12 03:51:00
11:51 PM,39.9,39.0,97,30.21,7.0,ESE,3.5,-,0.02,Rain,Light Rain,120,2013-01-12 04:51:00